Sarasota, FL

9:26 PM EST on December 06, 2019 (GMT -0500)
Sarasota-bradenton

Weather History for KSRQ - September, 2019

Change the Weather History Date:

Friday, September 6, 2019

  Actual Average Record
Temperature  
Mean Temperature 88 °F 82 °F  
Max Temperature 93 °F 89 °F 96 °F (1923)
Min Temperature 82 °F 75 °F 66 °F (1927)
Degree Days  
Heating Degree Days 0 0  
Month to date heating degree days 0 0  
Since 1 July heating degree days 0 0  
Cooling Degree Days 22 17  
Month to date cooling degree days 135 102  
Year to date cooling degree days 2993 2399  
Growing Degree Days 38 (Base 50)    
Moisture  
Dew Point 79 °F    
Average Humidity 73    
Maximum Humidity 80    
Minimum Humidity 66    
Precipitation  
Precipitation 0.00 in 0.33 in 2.83 in (2004)
Month to date precipitation 0.16 2.03  
Year to date precipitation 41.55 40.36  
Sea Level Pressure  
Sea Level Pressure 29.91 in    
Wind  
Wind Speed 11 mph ()    
Max Wind Speed 16 mph    
Max Gust Speed 23 mph    
Visibility 10.0 miles    
Events Thunderstorm    
T = Trace of Precipitation, MM = Missing Value Source: Averaged Metar Reports

Daily Weather History Graph

Daily Weather History Graph

Search for Another Location

Airport or City:

Astronomy

Sep. 06, 2019 Rise Set
Actual Time 7:11 AM EDT 7:45 PM EDT
Civil Twilight 6:47 AM EDT 8:08 PM EDT
Nautical Twilight 6:20 AM EDT 8:36 PM EDT
Astronomical Twilight 5:52 AM EDT 9:04 PM EDT
Moon 2:38 PM EDT (9/6) 12:39 AM EDT (9/6)
Length of Visible Light 13h 21m
Length of Day
12h 33m
First Quarter, 55% of the Moon is Illuminated
Sep 6
First Quarter
Sep 14
Full
Sep 21
Last Quarter
Sep 28
New
Oct 5
First Quarter

Hourly Weather History & Observations

Time (EDT) Temp. Heat Index Dew Point Humidity Pressure Visibility Wind Dir Wind Speed Gust Speed Precip Events Conditions
12:53 AM 86.0 °F 98.3 °F 78.1 °F 77% 29.93 in 10.0 mi West 12.7 mph - N/A   Partly Cloudy
1:53 AM 86.0 °F 98.3 °F 78.1 °F 77% 29.92 in 10.0 mi WNW 11.5 mph - N/A   Partly Cloudy
2:53 AM 86.0 °F 96.9 °F 77.0 °F 74% 29.91 in 10.0 mi WNW 11.5 mph - N/A   Clear
3:53 AM 86.0 °F 96.0 °F 75.9 °F 72% 29.90 in 10.0 mi West 12.7 mph - N/A   Clear
4:53 AM 86.0 °F 96.0 °F 75.9 °F 72% 29.90 in 10.0 mi West 11.5 mph - N/A   Partly Cloudy
5:53 AM 86.0 °F 96.9 °F 77.0 °F 74% 29.90 in 10.0 mi WNW 11.5 mph - N/A   Clear
6:53 AM 86.0 °F 96.9 °F 77.0 °F 74% 29.91 in 10.0 mi West 13.8 mph - N/A   Overcast
7:03 AM 86.0 °F 98.3 °F 78.1 °F 77% 29.91 in 10.0 mi West 11.5 mph - N/A   Mostly Cloudy
7:53 AM 86.0 °F 98.3 °F 78.1 °F 77% 29.92 in 10.0 mi West 12.7 mph - N/A   Overcast
8:17 AM 87.1 °F 101.5 °F 79.0 °F 77% 29.92 in 10.0 mi West 11.5 mph - N/A   Mostly Cloudy
8:51 AM 87.8 °F 102.5 °F 78.8 °F 75% 29.93 in 10.0 mi WNW 11.5 mph - N/A   Scattered Clouds
8:53 AM 88.0 °F 103.1 °F 79.0 °F 75% 29.93 in 10.0 mi West 13.8 mph - N/A   Scattered Clouds
9:10 AM 87.1 °F 101.5 °F 79.0 °F 77% 29.93 in 10.0 mi West 11.5 mph - N/A   Mostly Cloudy
9:23 AM 89.1 °F 104.4 °F 79.0 °F 72% 29.93 in 10.0 mi West 11.5 mph - N/A   Scattered Clouds
9:38 AM 88.0 °F 103.1 °F 79.0 °F 75% 29.94 in 10.0 mi West 12.7 mph - N/A   Mostly Cloudy
9:45 AM 88.0 °F 104.3 °F 80.1 °F 77% 29.94 in 10.0 mi West 12.7 mph - N/A   Scattered Clouds
9:53 AM 88.0 °F 104.3 °F 80.1 °F 77% 29.94 in 10.0 mi West 12.7 mph - N/A   Mostly Cloudy
10:53 AM 91.0 °F 110.6 °F 81.0 °F 72% 29.95 in 10.0 mi West 11.5 mph - N/A   Clear
11:53 AM 91.9 °F 112.0 °F 81.0 °F 70% 29.94 in 10.0 mi West 15.0 mph 21.9 mph N/A   Scattered Clouds
12:53 PM 91.9 °F 112.0 °F 81.0 °F 70% 29.93 in 10.0 mi West 12.7 mph - N/A   Scattered Clouds
1:53 PM 91.9 °F 112.0 °F 81.0 °F 70% 29.92 in 10.0 mi West 12.7 mph - N/A   Scattered Clouds
3:35 PM 91.9 °F 112.0 °F 81.0 °F 70% 29.89 in 10.0 mi West 11.5 mph - N/A   Scattered Clouds
3:53 PM 91.9 °F 110.4 °F 80.1 °F 68% 29.89 in 10.0 mi West 15.0 mph - N/A   Partly Cloudy
4:48 PM 91.4 °F 111.0 °F 80.6 °F 71% 29.88 in 10.0 mi WSW 12.7 mph - N/A   Mostly Cloudy
4:53 PM 91.0 °F 109.1 °F 80.1 °F 70% 29.88 in 10.0 mi WSW 13.8 mph - N/A   Mostly Cloudy
5:04 PM 91.0 °F 110.6 °F 81.0 °F 72% 29.87 in 10.0 mi WSW 12.7 mph - N/A   Scattered Clouds
5:53 PM 90.0 °F 107.9 °F 80.1 °F 73% 29.88 in 10.0 mi WSW 15.0 mph 20.7 mph N/A   Scattered Clouds
6:00 PM 90.0 °F 107.9 °F 80.1 °F 73% 29.87 in 10.0 mi WSW 15.0 mph - N/A   Mostly Cloudy
6:07 PM 90.0 °F 109.3 °F 81.0 °F 75% 29.87 in 10.0 mi West 13.8 mph - N/A   Scattered Clouds
6:53 PM 89.1 °F 106.4 °F 80.1 °F 75% 29.87 in 10.0 mi West 13.8 mph - N/A   Scattered Clouds
7:11 PM 89.1 °F 106.4 °F 80.1 °F 75% 29.87 in 10.0 mi West 12.7 mph - N/A Thunderstorm Thunderstorm
7:43 PM 88.0 °F 100.2 °F 77.0 °F 70% 29.88 in 10.0 mi NW 5.8 mph - N/A Thunderstorm Partly Cloudy
7:53 PM 88.0 °F 100.2 °F 77.0 °F 70% 29.88 in 10.0 mi NW 9.2 mph - N/A Thunderstorm Clear
8:05 PM 87.1 °F 98.8 °F 77.0 °F 72% 29.89 in 10.0 mi WNW 8.1 mph - N/A   Clear
8:53 PM 86.0 °F 96.9 °F 77.0 °F 74% 29.89 in 10.0 mi NW 5.8 mph - N/A   Partly Cloudy
9:53 PM 86.0 °F 95.1 °F 75.0 °F 70% 29.90 in 10.0 mi NW 10.4 mph - N/A   Partly Cloudy
10:53 PM 84.0 °F 91.2 °F 73.9 °F 72% 29.92 in 10.0 mi NW 5.8 mph - N/A   Partly Cloudy
11:53 PM 82.9 °F 88.0 °F 72.0 °F 69% 29.91 in 10.0 mi NW 6.9 mph - N/A   Clear